User: anonymous   Login
Location: ??????
(55.0357°N, 38.6195°E)
Time: 17:35:00
(UTC+00:00)
Language:

Cosmos 1805 - Orbit

View from above orbital plane
View from above orbital plane
View from above satellite
View from above satellite

Ground track
Ground track

The orbit data is extracted from the following two-line orbital elements,

1 17191U 86097A   24165.66016318  .00008147  00000-0  32438-3 0  9991
2 17191  82.4708  24.4682 0001745 242.8805 117.2255 15.25095437 49784
Epoch (UTC): 13 June 2024 15:50:38
Eccentricity: 0.0001745
inclination: 82.4708°
perigee height: 489 km
apogee height: 492 km
right ascension of ascending node: 24.4682°
argument of perigee: 242.8805°
revolutions per day: 15.25095437
mean anomaly at epoch: 117.2255°
orbit number at epoch: 4978

The dashed part of the orbit path shows where the satellite is in the earth's shadow,  

DLR